Home > Weather > New Bedford > Past weeks

Flag for USA Past Weather in New Bedford, Massachusetts, USA — Yesterday and Last 2 Weeks

Now
91 °F

Partly sunny.


Feels Like: 91 °F
Forecast: 71 / 89 °F
Wind: 12 mph from West

Location: New Bedford Regional Airport

Current Time: Jul 27, 2016 at 1:28:15 PM

Latest Report: Jul 27, 2016 at 12:53 PM


Visibility: 10 mi

Pressure: 29.90 "Hg

Humidity: 37%

Dew Point: 61 °F

Location of New BedfordLocation

Past Weather in New Bedford — Graph

°F

New Bedford Temperature Yesterday

Maximum temperature yesterday: 93 °F (at 2:53 PM)
Minimum temperature yesterday: 70 °F (at 5:53 AM)
Average temperature yesterday: 82 °F

High & Low Weather Summary for the Past Weeks

 TemperatureHumidityPressure
High94 °F (Jul 15, 12:53 PM)100% (Jul 16, 6:01 AM)30.20 "Hg (Jul 16, 6:01 AM)
Low0 °F (Jul 16, 6:01 AM)27% (Jul 20, 2:53 PM)29.71 "Hg (Jul 23, 5:53 PM)
Average76 °F69%29.94 "Hg
* Reported Jul 12 11:53 AM — Jul 27 11:53 AM, New Bedford, Weather by CustomWeather, © 2016

Note: Actual official high and low records may vary slightly from our data, if they occured in-between our weather recording intervals... More about our weather records

Advertising

New Bedford Weather History for the Previous 24 Hours

Scroll right to see more
 ConditionsComfort  
Time TempWeatherWind HumidityBarometerVisibility
11:53 AM
Wed, Jul 27
87 °FPassing clouds.9 mph42%29.90 "Hg10 mi
10:53 AM87 °FSunny.3 mph42%29.91 "Hg10 mi
9:53 AM83 °FSunny.5 mph48%29.92 "Hg10 mi
8:53 AM81 °FSunny.3 mph53%29.92 "Hg10 mi
7:53 AM78 °FSunny.5 mph60%29.92 "Hg10 mi
6:53 AM73 °FSunny.3 mph69%29.91 "Hg10 mi
5:53 AM64 °FClear.N/A87%29.91 "Hg10 mi
4:53 AM64 °FClear.No wind87%29.89 "Hg10 mi
3:53 AM66 °FClear.No wind87%29.88 "Hg10 mi
2:53 AM67 °FClear.No wind85%29.88 "Hg10 mi
1:53 AM72 °FClear.No wind71%29.88 "Hg10 mi
12:53 AM75 °FClear.No wind62%29.88 "Hg10 mi
11:53 PM
Tue, Jul 26
77 °FClear.3 mph58%29.88 "Hg10 mi
10:53 PM79 °FPassing clouds.No wind54%29.86 "Hg10 mi
9:53 PM75 °FClear.No wind74%29.85 "Hg10 mi
8:53 PM80 °FOvercast.3 mph60%29.82 "Hg10 mi
7:53 PM85 °FSunny.No wind48%29.79 "Hg10 mi
6:53 PM89 °FSunny.6 mph41%29.78 "Hg10 mi
5:53 PM92 °FSunny.12 mph36%29.78 "Hg10 mi
4:53 PM93 °FSunny.7 mph33%29.77 "Hg10 mi
3:53 PM93 °FPassing clouds.9 mph34%29.77 "Hg10 mi
2:53 PM93 °FPassing clouds.14 mph38%29.77 "Hg10 mi
1:53 PM92 °FScattered clouds.14 mph40%29.78 "Hg10 mi
Weather by CustomWeather, © 2016

See weather overviewHow to use our weather pages